Helena, Arkansas, United States (72342)
Lat: 34.53N, Lon: 90.59W
Wx Zone: ARZ058
Local Info
Past Weather Observations for Saturday, January 24, 2015

NOTE: This archive is for the closest National Weather Service station to Helena. Information may differ from the station used for current weather conditions.

Click here for Long-term Archive

Time Weather Temperature Dewpoint Humidity Pressure Winds Precip Visibility
23:55
Clear
36°F / 2°C 32°F / 0°C 87% 29.95 in
(1014 mb)
S 5.8 mph
(S 9 kph)
- 10SM
23:35
Clear
36°F / 2°C 34°F / 1°C 93% 29.95 in
(1014 mb)
Calm - 10SM
23:15
Clear
36°F / 2°C 34°F / 1°C 93% 29.95 in
(1014 mb)
S 3.5 mph
(S 6 kph)
- 10SM
22:55
Clear
37°F / 3°C 34°F / 1°C 87% 29.95 in
(1014 mb)
SSE 6.9 mph
(SSE 11 kph)
- 10SM
22:35
Clear
37°F / 3°C 34°F / 1°C 87% 29.95 in
(1014 mb)
SW 6.9 mph
(SW 11 kph)
- 10SM
22:15
Clear
37°F / 3°C 34°F / 1°C 87% 29.95 in
(1014 mb)
SW 6.9 mph
(SW 11 kph)
- 10SM
21:55
Clear
36°F / 2°C 32°F / 0°C 87% 29.95 in
(1014 mb)
S 6.9 mph
(S 11 kph)
- 10SM
21:35
Clear
39°F / 4°C 36°F / 2°C 87% 29.95 in
(1014 mb)
S 4.6 mph
(S 7 kph)
- 10SM
21:15
Clear
41°F / 5°C 36°F / 2°C 81% 29.95 in
(1014 mb)
S 8.1 mph
(S 13 kph)
- 10SM
20:55
Clear
41°F / 5°C 36°F / 2°C 81% 29.95 in
(1014 mb)
SSE 8.1 mph
(SSE 13 kph)
- 10SM
20:35
Clear
41°F / 5°C 36°F / 2°C 81% 29.98 in
(1015 mb)
S 6.9 mph
(S 11 kph)
- 10SM
20:15
Clear
41°F / 5°C 36°F / 2°C 81% 29.95 in
(1014 mb)
S 6.9 mph
(S 11 kph)
- 10SM
19:55
Clear
37°F / 3°C 34°F / 1°C 87% 29.95 in
(1014 mb)
S 9.2 mph
(S 15 kph)
- 10SM
19:35
Clear
43°F / 6°C 36°F / 2°C 76% 29.95 in
(1014 mb)
S 8.1 mph
(S 13 kph)
- 10SM
19:15
Clear
43°F / 6°C 36°F / 2°C 76% 29.98 in
(1015 mb)
S 8.1 mph
(S 13 kph)
- 10SM
18:55
Clear
43°F / 6°C 34°F / 1°C 71% 29.95 in
(1014 mb)
S 6.9 mph
(S 11 kph)
- 10SM
18:35
Clear
43°F / 6°C 34°F / 1°C 71% 29.95 in
(1014 mb)
S 5.8 mph
(S 9 kph)
- 10SM
18:15
Clear
45°F / 7°C 34°F / 1°C 66% 29.95 in
(1014 mb)
SW 8.1 mph
(SW 13 kph)
- 10SM
17:55
Clear
45°F / 7°C 36°F / 2°C 71% 29.95 in
(1014 mb)
SW 10.4 mph
(SW 17 kph)
- 10SM
17:35
Clear
46°F / 8°C 36°F / 2°C 66% 29.95 in
(1014 mb)
SW 8.1 mph
(SW 13 kph)
- 10SM
17:15
Clear
50°F / 10°C 36°F / 2°C 58% 29.95 in
(1014 mb)
SW 8.1 mph
(SW 13 kph)
- 10SM
16:55
Clear
52°F / 11°C 36°F / 2°C 54% 29.95 in
(1014 mb)
SW 9.2 mph
(SW 15 kph)
- 10SM
16:35
Clear
54°F / 12°C 36°F / 2°C 51% 29.95 in
(1014 mb)
SW 9.2 mph
(SW 15 kph)
- 10SM
16:15
Clear
54°F / 12°C 36°F / 2°C 51% 29.95 in
(1014 mb)
SW 10.4 mph
(SW 17 kph)
- 10SM
15:55
Clear
54°F / 12°C 36°F / 2°C 51% 29.95 in
(1014 mb)
SW 12.7 mph
(SW 20 kph)
- 10SM
15:35
Clear
54°F / 12°C 36°F / 2°C 51% 29.98 in
(1015 mb)
SW 13.8 mph
(SW 22 kph)
- 10SM
15:15
Clear
54°F / 12°C 36°F / 2°C 51% 29.98 in
(1015 mb)
SW 10.4 mph
(SW 17 kph)
- 10SM
14:55
Clear
54°F / 12°C 36°F / 2°C 51% 29.98 in
(1015 mb)
SW 10.4 mph
(SW 17 kph)
- 10SM
14:15
Clear
54°F / 12°C 36°F / 2°C 51% 29.98 in
(1015 mb)
SW 11.5 mph
(SW 19 kph)
- 10SM
13:55
Clear
54°F / 12°C 37°F / 3°C 54% 29.98 in
(1015 mb)
SSE 10.4 mph
(SSE 17 kph)
- 10SM
13:35
Clear
52°F / 11°C 36°F / 2°C 54% 29.98 in
(1015 mb)
SSE 12.7 mph
(SSE 20 kph)
- 10SM
13:15
Clear
52°F / 11°C 36°F / 2°C 54% 30.01 in
(1016 mb)
SSE 12.7 mph
(SSE 20 kph)
- 10SM
12:55
Clear
52°F / 11°C 36°F / 2°C 54% 30.01 in
(1016 mb)
S 15 mph
(S 24 kph)
- 10SM
12:35
Clear
50°F / 10°C 34°F / 1°C 54% 30.01 in
(1016 mb)
SSE 11.5 mph
(SSE 19 kph)
- 10SM
12:15
Clear
50°F / 10°C 34°F / 1°C 54% 30.04 in
(1017 mb)
SW 11.5 mph
(SW 19 kph)
- 10SM
11:55
Clear
50°F / 10°C 34°F / 1°C 54% 30.04 in
(1017 mb)
SSE 11.5 mph
(SSE 19 kph)
- 10SM
11:35
Clear
48°F / 9°C 32°F / 0°C 54% 30.06 in
(1018 mb)
SW 6.9 mph
(SW 11 kph)
- 10SM
11:15
Clear
46°F / 8°C 32°F / 0°C 57% 30.06 in
(1018 mb)
SSW 9.2 mph
(SSW 15 kph)
- 10SM
10:55
Clear
46°F / 8°C 32°F / 0°C 57% 30.09 in
(1019 mb)
SSW 11.5 mph
(SSW 19 kph)
- 10SM
10:35
Clear
45°F / 7°C 32°F / 0°C 61% 30.09 in
(1019 mb)
SSW 10.4 mph
(SSW 17 kph)
- 10SM
10:15
Clear
45°F / 7°C 32°F / 0°C 61% 30.06 in
(1018 mb)
SW 9.2 mph
(SW 15 kph)
- 10SM
09:55
Clear
43°F / 6°C 32°F / 0°C 66% 30.09 in
(1019 mb)
SSW 4.6 mph
(SSW 7 kph)
- 10SM
09:35
Clear
41°F / 5°C 32°F / 0°C 70% 30.09 in
(1019 mb)
SW 6.9 mph
(SW 11 kph)
- 10SM
09:15
Clear
37°F / 3°C 32°F / 0°C 81% 30.09 in
(1019 mb)
SW 6.9 mph
(SW 11 kph)
- 10SM
08:55
Clear
36°F / 2°C 32°F / 0°C 87% 30.09 in
(1019 mb)
SW 5.8 mph
(SW 9 kph)
- 10SM
08:35
Clear
34°F / 1°C 32°F / 0°C 93% 30.06 in
(1018 mb)
S 5.8 mph
(S 9 kph)
- 7SM
08:15
Clear
32°F / 0°C 30°F / -1°C 93% 30.06 in
(1018 mb)
S 5.8 mph
(S 9 kph)
- 7SM
07:55
Clear
Fog And Mist
30°F / -1°C 30°F / -1°C 100% 30.06 in
(1018 mb)
S 4.6 mph
(S 7 kph)
- 5SM
07:35
Clear
Fog And Mist
30°F / -1°C 28°F / -2°C 93% 30.09 in
(1019 mb)
Calm - 5SM
07:15
Clear
Fog And Mist
30°F / -1°C 28°F / -2°C 93% 30.06 in
(1018 mb)
Calm - 4SM
06:55
Clear
30°F / -1°C 28°F / -2°C 93% 30.06 in
(1018 mb)
SSW 3.5 mph
(SSW 6 kph)
- 7SM
06:35
Clear
30°F / -1°C 28°F / -2°C 93% 30.06 in
(1018 mb)
SSW 4.6 mph
(SSW 7 kph)
- 7SM
06:15
Clear
30°F / -1°C 28°F / -2°C 93% 30.04 in
(1017 mb)
SSW 4.6 mph
(SSW 7 kph)
- 7SM
05:55
Clear
30°F / -1°C 28°F / -2°C 93% 30.04 in
(1017 mb)
W 4.6 mph
(W 7 kph)
- 7SM
05:35
Clear
Fog And Mist
30°F / -1°C 28°F / -2°C 93% 30.04 in
(1017 mb)
SSW 6.9 mph
(SSW 11 kph)
- 5SM
05:15
Clear
30°F / -1°C 28°F / -2°C 93% 30.04 in
(1017 mb)
SSW 5.8 mph
(SSW 9 kph)
- 7SM
04:55
Clear
30°F / -1°C 28°F / -2°C 93% 30.04 in
(1017 mb)
SSW 5.8 mph
(SSW 9 kph)
- 7SM
04:35
Clear
32°F / 0°C 30°F / -1°C 93% 30.04 in
(1017 mb)
SSW 6.9 mph
(SSW 11 kph)
- 7SM
04:15
Clear
30°F / -1°C 30°F / -1°C 100% 30.04 in
(1017 mb)
W 5.8 mph
(W 9 kph)
- 7SM
03:55
Clear
32°F / 0°C 30°F / -1°C 93% 30.04 in
(1017 mb)
W 6.9 mph
(W 11 kph)
- 7SM
03:35
Clear
32°F / 0°C 30°F / -1°C 93% 30.04 in
(1017 mb)
W 5.8 mph
(W 9 kph)
- 7SM
03:15
Clear
Fog And Mist
32°F / 0°C 30°F / -1°C 93% 30.04 in
(1017 mb)
W 5.8 mph
(W 9 kph)
- 5SM
02:55
Clear
Fog And Mist
30°F / -1°C 30°F / -1°C 100% 30.04 in
(1017 mb)
W 4.6 mph
(W 7 kph)
- 4SM
02:35
Clear
Fog And Mist
30°F / -1°C 30°F / -1°C 100% 30.04 in
(1017 mb)
W 5.8 mph
(W 9 kph)
- 4SM
02:15
Clear
Fog And Mist
32°F / 0°C 30°F / -1°C 93% 30.04 in
(1017 mb)
SSW 4.6 mph
(SSW 7 kph)
- 4SM
01:55
Clear
Fog And Mist
32°F / 0°C 30°F / -1°C 93% 30.04 in
(1017 mb)
W 3.5 mph
(W 6 kph)
- 3SM
01:35
Clear
Fog And Mist
32°F / 0°C 32°F / 0°C 100% 30.04 in
(1017 mb)
SSW 3.5 mph
(SSW 6 kph)
- 3SM
01:15
Clear
Fog And Mist
32°F / 0°C 32°F / 0°C 100% 30.04 in
(1017 mb)
Calm - 4SM
00:55
Clear
Fog And Mist
32°F / 0°C 32°F / 0°C 100% 30.04 in
(1017 mb)
SSW 3.5 mph
(SSW 6 kph)
- 4SM
00:35
Clear
Fog And Mist
32°F / 0°C 32°F / 0°C 100% 30.06 in
(1018 mb)
SSW 3.5 mph
(SSW 6 kph)
- 4SM
00:15
Clear
Fog And Mist
32°F / 0°C 32°F / 0°C 100% 30.06 in
(1018 mb)
SSW 4.6 mph
(SSW 7 kph)
- 5SM
Time Weather Temperature Dewpoint Humidity Pressure Winds Precip Visibility


Weather for websites

WeatherForYou.com, LLC is not responsible for any damages or problems caused by this service. Current weather conditions are obtained from the closest station including government and personal stations which may have varying degrees of accuracy. Weather forecasts are derived from the NOAA NDFD. Like all things, this site belongs to Jesus Christ... He just trusts me to maintain it. If you have any questions or comments email webmaster@weatherforyou.com

Copyright © 2015, WeatherForYou.com LLC. All rights reserved.